Regional Weather Roundup
Issued by NWS

Home | Current Version | Previous Version | Graphics & Text | Print | Product List | Glossary On
Versions: 1 2 3 4 5 6 7 8 9 10 11 12 13 14 15 16 17 18 19 20 21 22 23 24 25 26 27 28 29 30 31 32 33 34 35 36 37 38 39 40 41 42 43 44 45 46 47 48 49 50
000
ASUS43 KBIS 282210
RWRND

NORTH DAKOTA REGIONAL WEATHER ROUNDUP
NATIONAL WEATHER SERVICE BISMARCK ND
500 PM CDT THU MAY 28 2015

NOTE: "FAIR" INDICATES FEW OR NO CLOUDS BELOW 12,000 FEET WITH NO
SIGNIFICANT WEATHER AND/OR OBSTRUCTIONS TO VISIBILITY.


NDZ001>003-009>011-017-282300-
NORTHWEST NORTH DAKOTA

CITY           SKY/WX    TMP DP  RH WIND       PRES   REMARKS
WILLISTON      PTSUNNY   73  53  49 N18       29.89R
MINOT          PTSUNNY   68  56  65 NW13      29.86R
MINOT AFB      PTSUNNY   70  67  90 N7        29.85S
$$

NDZ018>021-031>035-040>046-282300-
SOUTHWEST NORTH DAKOTA

CITY           SKY/WX    TMP DP  RH WIND       PRES   REMARKS
BISMARCK       PTSUNNY   78  55  44 W7        29.83F
DICKINSON      MOSUNNY   73  56  54 N20       29.86S
GARRISON         N/A     72  56  57 N6        29.85S
HETTINGER ARPT PTSUNNY   71  51  49 N7        29.89F
$$

NDZ004>008-012>016-024-026-027-054-282300-
NORTHEAST NORTH DAKOTA

CITY           SKY/WX    TMP DP  RH WIND       PRES   REMARKS
GRAND FORKS    TSTM      68  62  81 SW22G32   29.78R
GRND FRKS AFB  PTSUNNY   68  59  73 S21G29    29.78S
DEVILS LAKE    PTSUNNY   75  57  53 W13       29.80S
$$

NDZ022-023-025-028>030-036>039-047>053-282300-
SOUTHEAST NORTH DAKOTA

CITY           SKY/WX    TMP DP  RH WIND       PRES   REMARKS
FARGO          HVY RAIN  66  61  84 W32G40    29.80R
JAMESTOWN      PTSUNNY   75  62  64 W13       29.79F
$$



USA.gov is the U.S. government's official web portal to all federal, state and local government web resources and services.